Current Weather Conditions: station 46183

sailwx.info

Wind from 110 at 13 knots gusting 17

Wave height 1.1 meters (3 feet), 7 second period

Air temperature 12.9° C

Last reported at 2016-Aug-30 11:00 UTC.
Time now 2016-Aug-30 13:13 UTC

Location: N 53°36' W 131°06'.
View on Google Maps.

See reports from other nearby stations

  
Tides and Currents Weather Stations Pressure Air Temp Water Temp Dewpoint Dewpoint Depression Visibility Wind Speed Wind Dir Waves Ship Positions
date/time (UTC)wind fromknots sea level pressurealtimeterstation pressurevisibilityair tempwater tempwave heightnotes
2016-Aug-30 11:00 110 13 gusting 17 12.9 1.1
2016-Aug-30 10:00 110 15 gusting 19 12.9 1.2
2016-Aug-30 09:00 120 13 gusting 15 12.5 1.4
2016-Aug-30 08:00 110 15 gusting 17 12.5 1.4
2016-Aug-30 07:00 120 17 gusting 19 12.4 1.4
2016-Aug-30 06:00 120 15 gusting 19 12.4 1.5
2016-Aug-30 05:00 120 19 gusting 21 12.4 1.6
2016-Aug-30 04:00 120 19 gusting 23 12.4 1.6
2016-Aug-30 03:00 120 17 gusting 19 12.3 1.6
2016-Aug-30 02:00 120 19 gusting 23 12.5 1.7
2016-Aug-30 01:00 120 17 gusting 19 12.9 1.8
2016-Aug-30 00:00 120 17 gusting 19 12.9 1.9
2016-Aug-29 23:00 120 17 gusting 21 12.7 2.0
2016-Aug-29 22:00 120 17 gusting 19 12.7 2.1
2016-Aug-29 21:00 130 17 gusting 21 12.6 2.0
2016-Aug-29 20:00 130 19 gusting 23 12.7 2.2
2016-Aug-29 19:00 130 19 gusting 23 12.7 2.1
2016-Aug-29 18:00 120 19 gusting 23 12.6 2.2
2016-Aug-29 13:00 140 19 gusting 23 13.2 2.7
2016-Aug-29 12:00 130 23 gusting 29 12.9 2.7
2016-Aug-29 11:00 120 25 gusting 31 12.9 2.8
2016-Aug-29 10:00 120 25 gusting 31 12.8 2.6
2016-Aug-29 09:00 130 23 gusting 29 13.1 2.3
2016-Aug-29 08:00 120 23 12.7
2016-Aug-29 07:00 120 19 gusting 23 12.3 2.3
2016-Aug-29 06:00 120 19 gusting 23 12.4 2.3
2016-Aug-29 05:00 120 21 gusting 25 12.4 2.2
2016-Aug-29 04:00 120 19 gusting 21 12.7 2.1
2016-Aug-29 03:00 130 19 gusting 23 12.4 2.2
2016-Aug-29 02:00 130 19 gusting 23 12.6 2.2
2016-Aug-29 01:00 120 21 gusting 27 12.5 2.2
2016-Aug-29 00:00 120 21 gusting 25 12.3 2.2
2016-Aug-28 23:00 120 23 gusting 27 12.1 2.4
2016-Aug-28 22:00 110 25 gusting 31 12.3 2.5
2016-Aug-28 21:00 120 25 gusting 34 12.6 2.5
2016-Aug-28 20:00 110 27 gusting 33 12.7 1.8
2016-Aug-28 19:00 100 23 gusting 29 12.7 1.4
2016-Aug-28 18:00 100 21 gusting 23 13.2 1.3
2016-Aug-28 17:00 110 19 gusting 25 12.9 1.1
2016-Aug-28 16:00 110 21 gusting 25 12.8 1.0
2016-Aug-28 15:00 120 17 gusting 21 12.6 0.9
2016-Aug-28 14:00 120 17 gusting 21 13.0 0.8
2016-Aug-28 13:00 120 17 gusting 21 13.3 0.7